Location: Key Biscayne
(25.6930°N, 80.1630°W)
Time: 08:44:13
(UTC-05:00)

Vanguard 3 - All Passes

Search period start: 24 February 2018 00:00
Search period end: 06 March 2018 00:00
Orbit: 508 x 3264 km, 33.3° (Epoch: 24 February)

Date Brightness Start Highest point End Pass type
(mag) Time Alt. Az. Time Alt. Az. Time Alt. Az.
24 Feb - 10:07:04 10° SSW 10:16:31 21° SSE 10:23:16 10° ESE daylight
24 Feb - 12:19:46 10° SW 12:30:42 54° SSE 12:36:50 10° ENE daylight
24 Feb - 14:35:53 10° W 14:43:06 54° NNW 14:47:32 10° ENE daylight
24 Feb - 16:51:21 10° WNW 16:55:16 28° N 16:58:31 10° ENE daylight
24 Feb - 19:03:25 10° WNW 19:07:04 75° NNE 19:11:22 10° ESE visible
24 Feb - 21:15:25 10° WSW 21:18:42 20° SSW 21:23:05 10° SSE visible
25 Feb - 08:54:30 10° S 09:00:43 13° SSE 09:05:57 10° SE daylight
25 Feb - 11:03:52 10° SW 11:15:59 38° SSE 11:23:15 10° E daylight
25 Feb - 13:19:21 10° WSW 13:29:14 85° NNW 13:34:43 10° ENE daylight
25 Feb - 15:36:04 10° WNW 15:41:28 34° N 15:45:16 10° ENE daylight
25 Feb - 17:49:56 10° WNW 17:53:40 39° NNE 17:57:11 10° E daylight
25 Feb - 20:01:35 10° W 20:05:03 36° SSW 20:09:33 10° SE visible
26 Feb - 09:48:37 10° SSW 10:00:41 27° SSE 10:08:49 10° E daylight
26 Feb - 12:02:39 10° SW 12:14:59 66° SSE 12:21:41 10° ENE daylight
26 Feb - 14:19:44 10° W 14:27:37 50° NNW 14:32:22 10° ENE daylight
26 Feb - 16:35:38 10° WNW 16:40:01 31° N 16:43:25 10° ENE daylight
26 Feb - 18:48:02 10° WNW 18:51:44 82° SSW 18:55:45 10° ESE visible
26 Feb - 21:01:16 10° SW 21:03:20 13° SSW 21:05:43 10° S visible
27 Feb - 08:34:43 10° S 08:44:47 18° SSE 08:52:40 10° ESE daylight
27 Feb - 10:46:14 10° SW 11:00:08 47° SSE 11:08:13 10° E daylight
27 Feb - 13:02:45 10° WSW 13:13:36 76° NNW 13:19:31 10° ENE daylight
27 Feb - 15:20:08 10° WNW 15:26:09 36° N 15:30:10 10° ENE daylight
27 Feb - 17:34:18 10° WNW 17:38:24 49° NNE 17:41:57 10° E daylight
27 Feb - 19:46:34 10° W 19:49:40 25° SSW 19:53:19 10° SSE visible
28 Feb - 07:25:39 10° SSE 07:28:21 10° SSE 07:30:56 10° SE daylight
28 Feb - 09:30:27 10° SSW 09:44:41 34° SSE 09:53:59 10° E daylight
28 Feb - 11:45:34 10° WSW 11:59:09 77° SSE 12:06:29 10° ENE daylight
28 Feb - 14:03:29 10° W 14:12:08 49° NNW 14:17:13 10° ENE daylight
28 Feb - 16:19:46 10° WNW 16:24:44 36° N 16:28:22 10° ENE daylight
28 Feb - 18:32:38 10° WNW 18:36:23 59° SSW 18:40:08 10° SE daylight
01 Mar - 08:15:50 10° SSW 08:28:41 24° SSE 08:38:23 10° E daylight
01 Mar - 10:28:41 10° SW 10:44:09 57° SSE 10:53:02 10° ENE daylight
01 Mar - 12:46:06 10° WSW 12:57:53 69° NNW 13:04:17 10° ENE daylight
01 Mar - 15:04:04 10° WNW 15:10:48 38° N 15:15:06 10° ENE daylight
01 Mar - 17:18:34 10° WNW 17:23:06 64° NNE 17:26:44 10° ESE daylight
01 Mar - 19:31:44 10° WSW 19:34:15 17° SSW 19:36:57 10° SSE visible
02 Mar - 07:03:40 10° S 07:12:16 15° SE 07:19:48 10° ESE daylight
02 Mar - 09:12:29 10° SSW 09:28:32 41° SSE 09:38:54 10° E daylight
02 Mar - 11:28:29 10° WSW 11:43:14 87° SSE 11:51:13 10° ENE daylight
02 Mar - 13:47:09 10° W 13:56:36 48° NNW 14:02:04 10° ENE daylight
02 Mar - 16:03:47 10° WNW 16:09:27 43° N 16:13:20 10° E daylight
02 Mar - 18:17:12 10° WNW 18:21:01 42° SSW 18:24:30 10° SE daylight
03 Mar - 07:57:26 10° SSW 08:12:25 29° SE 08:23:36 10° E daylight
03 Mar - 10:11:12 10° SW 10:28:02 66° SSE 10:37:45 10° ENE daylight
03 Mar - 12:29:24 10° W 12:42:08 65° NNW 12:49:04 10° ENE daylight
03 Mar - 14:47:51 10° WNW 14:55:26 42° N 15:00:04 10° ENE daylight
03 Mar - 17:02:45 10° WNW 17:07:47 83° NNE 17:11:29 10° ESE daylight
03 Mar - 19:17:24 10° SW 19:18:44 12° SW 19:20:05 10° SSW visible
04 Mar - 06:44:16 10° S 06:55:58 19° SE 07:06:02 10° ESE daylight
04 Mar - 08:54:43 10° SW 09:12:13 49° SSE 09:23:37 10° E daylight
04 Mar - 11:11:25 10° WSW 11:27:14 85° NNW 11:35:53 10° ENE daylight
04 Mar - 13:30:42 10° W 13:41:04 49° N 13:46:57 10° ENE daylight
04 Mar - 15:47:40 10° WNW 15:54:08 52° NNE 15:58:17 10° E daylight
04 Mar - 18:01:44 10° W 18:05:33 31° SSW 18:08:49 10° SSE daylight
05 Mar - 07:39:22 10° SSW 07:55:57 35° SE 08:08:28 10° E daylight
05 Mar - 09:53:50 10° SW 10:11:45 74° SSE 10:22:20 10° ENE daylight
05 Mar - 12:12:39 10° W 12:26:20 62° NNW 12:33:49 10° ENE daylight
05 Mar - 14:31:30 10° WNW 14:40:01 47° N 14:45:03 10° ENE daylight
05 Mar - 16:46:51 10° WNW 16:52:23 77° SSW 16:56:14 10° ESE daylight
